EW8041 Weather Reports


Display with metric or nautical units.
time (UTC)temp
F
wind
direction
speed
MPH
gust
MPH
rain 1hr
in
rain 24hr
in
rain mn
in
humidity
%
barometer
mb
20260510230527 81 15 1.0 3.0 0.00 0.00 0.00 56 1015.1
20260510225522 81 15 1.0 2.0 0.00 0.00 0.00 56 1015.1
20260510224518 82 15 1.0 2.0 0.00 0.00 0.00 55 1015.2
20260510223535 82 358 1.0 3.0 0.00 0.00 0.00 55 1015.2
20260510222530 82 260 2.0 4.0 0.00 0.00 0.00 55 1015.2
20260510221526 82 50 1.0 3.0 0.00 0.00 0.00 54 1015.3
20260510220521 82 50 1.0 2.0 0.00 0.00 0.00 55 1015.5
20260510215517 82 51 1.0 2.0 0.00 0.00 0.00 53 1015.5
20260510214533 83 296 1.0 2.0 0.00 0.00 0.00 53 1015.4
20260510213549 83 134 1.0 2.0 0.00 0.00 0.00 55 1015.5
20260510212525 83 72 1.0 4.0 0.00 0.00 0.00 53 1015.5
20260510211521 84 108 1.0 3.0 0.00 0.00 0.00 56 1015.4
20260510210516 84 71 2.0 3.0 0.00 0.00 0.00 55 1015.4
20260510205533 85 86 2.0 4.0 0.00 0.00 0.00 56 1015.5
20260510204529 85 185 2.0 4.0 0.00 0.00 0.00 58 1015.6
20260510203544 85 214 2.0 6.0 0.00 0.00 0.00 58 1015.8
20260510202520 85 256 3.0 7.0 0.00 0.00 0.00 58 1016.0
20260510201516 84 270 1.0 7.0 0.00 0.00 0.00 60 1016.1
20260510200532 84 190 2.0 6.0 0.00 0.00 0.00 61 1016.2
20260510195548 84 257 2.0 7.0 0.00 0.00 0.00 62 1016.0
20260510194524 83 200 1.0 4.0 0.00 0.00 0.00 63 1016.3
20260510193519 82 258 2.0 4.0 0.00 0.00 0.00 64 1016.3
20260510192535 81 278 1.0 4.0 0.00 0.00 0.00 62 1016.2
20260510191531 81 256 0.0 2.0 0.00 0.00 0.00 63 1016.4
20260510190527 82 266 1.0 6.0 0.00 0.00 0.00 63 1016.4
20260510185523 81 141 1.0 3.0 0.00 0.00 0.00 67 1016.5
20260510184519 81 287 2.0 7.0 0.00 0.00 0.00 65 1016.5
20260510183535 81 53 1.0 4.0 0.00 0.00 0.00 66 1016.5
20260510182551 80 104 2.0 6.0 0.00 0.00 0.00 70 1016.7
20260510181527 79 282 2.0 3.0 0.00 0.00 0.00 70 1016.8
20260510180522 79 285 1.0 2.0 0.00 0.00 0.00 72 1016.9
20260510175518 80 268 2.0 4.0 0.00 0.00 0.00 71 1017.0
20260510174533 80 339 0.0 2.0 0.00 0.00 0.00 73 1017.1
20260510173529 79 259 1.0 4.0 0.00 0.00 0.00 76 1017.1
20260510172524 78 271 1.0 3.0 0.00 0.00 0.00 81 1017.3
20260510171520 78 277 2.0 6.0 0.00 0.00 0.00 80 1017.2
20260510170516 79 287 1.0 4.0 0.00 0.00 0.00 80 1017.2
20260510165531 79 285 2.0 7.0 0.00 0.00 0.00 83 1017.3
20260510164527 79 302 1.0 3.0 0.00 0.00 0.00 84 1017.5
20260510163523 79 194 1.0 3.0 0.00 0.00 0.00 85 1017.6
20260510162518 77 248 3.0 7.0 0.00 0.00 0.00 85 1017.6
20260510161535 78 96 1.0 4.0 0.00 0.00 0.00 87 1017.7
20260510160531 77 223 2.0 6.0 0.00 0.00 0.00 89 1017.7
20260510155547 77 260 1.0 3.0 0.00 0.00 0.00 88 1017.5
20260510154603 76 253 1.0 3.0 0.00 0.00 0.00 88 1017.5
20260510153518 76 265 2.0 3.0 0.00 0.00 0.00 91 1017.4
20260510152534 74 292 1.0 3.0 0.00 0.00 0.00 92 1017.5
20260510151530 73 292 0.0 2.0 0.00 0.00 0.00 89 1017.3
20260510150526 73 293 1.0 2.0 0.00 0.00 0.00 93 1017.5
20260510145522 72 293 2.0 3.0 0.00 0.00 0.00 96 1017.5
20260510144518 69 293 1.0 3.0 0.00 0.00 0.00 95 1017.6
20260510143533 68 293 1.0 2.0 0.00 0.00 0.00 95 1017.6
20260510142529 67 293 1.0 3.0 0.00 0.00 0.00 96 1017.5
20260510141544 66 293 1.0 1.0 0.00 0.00 0.00 96 1017.5
20260510140640 65 293 0.0 2.0 0.00 0.00 0.00 96 1017.7
20260510135516 65 293 1.0 3.0 0.00 0.00 0.00 96 1017.6
20260510134532 64 293 1.0 3.0 0.00 0.00 0.00 96 1017.4
20260510133527 64 293 1.0 2.0 0.00 0.00 0.00 96 1017.4
20260510132542 63 293 0.0 1.0 0.00 0.00 0.00 96 1017.4
20260510131518 63 293 0.0 1.0 0.00 0.00 0.00 96 1017.2
20260510130534 63 293 1.0 3.0 0.00 0.00 0.00 95 1017.1
20260510125530 63 293 1.0 2.0 0.00 0.00 0.00 95 1017.0
20260510124526 63 293 0.0 1.0 0.00 0.00 0.00 95 1016.9
20260510123521 63 293 0.0 1.0 0.00 0.00 0.00 95 1016.6
20260510122517 62 293 1.0 2.0 0.00 0.00 0.00 95 1016.6
20260510121553 62 293 1.0 2.0 0.00 0.00 0.00 95 1016.6
20260510120529 62 293 0.0 2.0 0.00 0.00 0.00 95 1016.4
20260510115525 61 0.0 0.0 0.00 0.00 0.00 95 1016.2
20260510114521 61 0.0 0.0 0.00 0.00 0.00 94 1016.2
20260510113517 60 0.0 0.0 0.00 0.00 0.00 94 1016.0
20260510112533 60 0.0 0.0 0.00 0.00 0.00 94 1015.9
20260510111528 59 0.0 0.0 0.00 0.00 0.00 94 1015.6
20260510110524 58 293 0.0 1.0 0.00 0.00 0.00 94 1015.5
20260510105520 58 294 0.0 1.0 0.00 0.00 0.00 94 1015.3
20260510104516 57 0.0 0.0 0.00 0.00 0.00 94 1015.2
20260510103552 56 0.0 0.0 0.00 0.00 0.00 93 1014.9
20260510102527 56 0.0 0.0 0.00 0.00 0.00 93 1014.9
20260510101523 56 0.0 0.0 0.00 0.00 0.00 93 1015.0
20260510100519 56 294 0.0 1.0 0.00 0.00 0.00 93 1014.9
20260510095536 56 294 0.0 1.0 0.00 0.00 0.00 92 1014.8
20260510094531 56 0.0 0.0 0.00 0.00 0.00 92 1014.7
20260510093547 56 0.0 0.0 0.00 0.00 0.00 92 1014.7
20260510092523 56 294 0.0 1.0 0.00 0.00 0.00 92 1014.8
20260510091519 56 0.0 0.0 0.00 0.00 0.00 92 1014.8
20260510090535 56 0.0 0.0 0.00 0.00 0.00 92 1014.8
20260510085530 56 0.0 0.0 0.00 0.00 0.00 91 1014.5
20260510084525 56 0.0 0.0 0.00 0.00 0.00 91 1014.4
20260510083540 57 0.0 0.0 0.00 0.00 0.00 91 1014.2
20260510082516 57 294 0.0 1.0 0.00 0.00 0.00 91 1014.2
20260510081532 57 294 0.0 1.0 0.00 0.00 0.00 91 1013.9
20260510080527 57 0.0 0.0 0.00 0.00 0.00 91 1013.8
20260510075603 57 294 0.0 1.0 0.00 0.00 0.00 90 1013.7
20260510074519 58 0.0 0.0 0.00 0.00 0.00 90 1013.7
20260510073535 58 0.0 0.0 0.00 0.00 0.00 90 1013.7
20260510072531 58 0.0 0.0 0.00 0.00 0.00 90 1013.6
20260510071527 58 0.0 0.0 0.00 0.00 0.00 90 1013.6
20260510070523 58 0.0 0.0 0.00 0.00 0.00 90 1013.6
20260510065519 58 0.0 0.0 0.00 0.00 0.00 89 1013.5
20260510064535 59 0.0 0.0 0.00 0.00 0.00 89 1013.7
20260510063531 59 294 0.0 1.0 0.00 0.00 0.00 89 1013.7
20260510062526 59 293 0.0 1.0 0.00 0.00 0.00 89 1013.8
20260510061522 59 294 0.0 2.0 0.00 0.00 0.00 89 1013.7
20260510060518 59 0.0 0.0 0.00 0.00 0.00 88 1013.9
20260510055534 59 0.0 0.0 0.00 0.00 0.00 88 1013.9
20260510054529 60 0.0 0.0 0.00 0.00 0.00 88 1013.9
20260510053525 60 0.0 0.0 0.00 0.00 0.00 87 1014.0
20260510052521 60 0.0 0.0 0.00 0.00 0.00 87 1014.0
20260510051516 60 0.0 0.0 0.00 0.00 0.00 87 1014.0
20260510050532 60 0.0 0.0 0.00 0.00 0.00 87 1014.0
20260510045528 60 293 0.0 1.0 0.00 0.00 0.00 86 1013.9
20260510044523 61 0.0 0.0 0.00 0.00 0.00 86 1013.9
20260510043519 61 0.0 0.0 0.00 0.00 0.00 86 1014.1
20260510042535 61 293 0.0 1.0 0.00 0.00 0.00 85 1014.0
20260510041530 61 0.0 0.0 0.00 0.00 0.00 85 1014.0
20260510040526 62 0.0 0.0 0.00 0.00 0.00 84 1014.2
20260510035542 62 0.0 0.0 0.00 0.00 0.00 84 1014.1
20260510034558 62 293 0.0 1.0 0.00 0.00 0.00 84 1014.1
20260510032529 63 293 0.0 1.0 0.00 0.00 0.00 83 1014.1
20260510031524 63 0.0 0.0 0.00 0.00 0.00 82 1014.0
20260510030540 64 293 1.0 1.0 0.00 0.00 0.00 82 1013.9
20260510025536 64 293 0.0 1.0 0.00 0.00 0.00 81 1013.8
20260510024531 64 0.0 0.0 0.00 0.00 0.00 81 1013.8
20260510023607 64 0.0 0.0 0.00 0.00 0.00 80 1013.6
20260510022523 65 0.0 0.0 0.00 0.00 0.00 80 1013.5
20260510021518 65 0.0 0.0 0.00 0.00 0.00 79 1013.2
20260510020534 66 0.0 0.0 0.00 0.00 0.00 78 1012.9
20260510015530 66 0.0 0.0 0.00 0.00 0.00 78 1012.6
20260510014525 67 0.0 0.0 0.00 0.00 0.00 77 1012.5
20260510013521 67 0.0 0.0 0.00 0.00 0.00 77 1012.4
20260510012537 68 0.0 0.0 0.00 0.00 0.00 76 1012.3
20260510011532 68 0.0 0.0 0.00 0.00 0.00 75 1012.2
20260510010528 69 293 0.0 1.0 0.00 0.00 0.00 75 1012.1
20260510005524 70 0.0 0.0 0.00 0.00 0.00 74 1012.0
20260510004519 70 293 0.0 1.0 0.00 0.00 0.00 73 1011.9
20260510003555 71 293 0.0 1.0 0.00 0.00 0.00 73 1011.6
20260510002551 72 293 0.0 1.0 0.00 0.00 0.00 72 1011.5
20260510001526 72 293 0.0 1.0 0.00 0.00 0.00 72 1011.4
20260510000523 73 293 0.0 1.0 0.00 0.00 0.00 71 1011.4
20260509235518 73 293 0.0 1.0 0.00 0.00 0.00 71 1011.3
20260509234534 73 293 0.0 1.0 0.00 0.00 0.00 70 1011.2
20260509233530 74 293 0.0 1.0 0.00 0.00 0.00 70 1010.9
20260509232545 74 293 0.0 1.0 0.00 0.00 0.00 69 1011.1
20260509231520 75 293 0.0 1.0 0.00 0.00 0.00 69 1011.2